Location: Aalen
(48.8330°N, 10.1000°E)
Time: 19:15:09
(UTC+01:00)

COSMOS 2251 DEB - Visible Passes

Search period start: 16 January 2022 00:00
Search period end: 26 January 2022 00:00
Orbit: 757 x 790 km, 74.0° (Epoch: 16 January)

Date Brightness Start Highest point End Pass type
(mag) Time Alt. Az. Time Alt. Az. Time Alt. Az.
16 Jan ? 04:37:06 11° SSE 04:37:06 11° SSE 04:37:20 10° SSE visible
16 Jan ? 17:29:29 10° SE 17:32:43 17° E 17:35:58 10° NE visible
16 Jan ? 19:09:02 10° SSW 19:14:16 76° WNW 19:17:05 28° NNE visible
16 Jan ? 20:54:19 10° W 20:57:24 15° NW 20:57:31 15° NW visible
17 Jan ? 18:33:44 10° SSW 18:38:55 71° ESE 18:43:03 16° NNE visible
17 Jan ? 20:17:40 10° W 20:21:40 22° NW 20:23:28 18° NNW visible
18 Jan ? 17:58:43 10° S 18:03:39 45° ESE 18:08:36 10° NE visible
18 Jan ? 19:41:25 10° WSW 19:46:01 31° NW 19:49:21 16° N visible
19 Jan ? 17:24:03 10° SSE 17:28:29 29° E 17:32:55 10° NE visible
19 Jan ? 19:05:29 10° SW 19:10:28 45° WNW 19:15:09 12° NNE visible
19 Jan ? 20:53:24 10° NW 20:54:06 10° NW 20:54:48 10° NNW visible
20 Jan ? 18:29:49 10° SSW 18:35:00 69° WNW 18:40:13 10° NNE visible
20 Jan ? 20:15:27 10° WNW 20:18:14 14° NW 20:21:02 10° N visible
21 Jan ? 17:54:26 10° SSW 17:59:38 79° ESE 18:04:51 10° NNE visible
21 Jan ? 19:38:40 10° W 19:42:28 20° NW 19:46:17 10° N visible
22 Jan ? 19:02:20 10° WSW 19:06:48 28° NW 19:11:17 10° N visible
23 Jan ? 18:26:20 10° SW 18:31:14 41° WNW 18:36:09 10° NNE visible
24 Jan ? 17:50:36 10° SW 17:55:45 62° WNW 18:00:56 10° NNE visible
24 Jan ? 19:36:35 10° WNW 19:39:04 13° NW 19:41:33 10° NNW visible
25 Jan ? 18:59:41 10° W 19:03:16 19° NW 19:06:53 10° N visible
